Location: Choisy
(48.7685°N, 2.4187°E)
Time: 20:50:49
(UTC+00:00)

ATLAS 3B R/B - Pass Details

Date: 04 June 2022
Orbit: 976 x 1218 km, 63.8° (Epoch: 20 June)

Event Time Altitude Azimuth Distance (km) Brightness Sun altitude
Rises 21:14:05 0° 314° (NW) 3,989 7.7 -10.8°
Reaches altitude 10° 21:17:09 10° 303° (WNW) 3,062 6.3 -11.1°
Maximum altitude 21:23:06 28° 248° (WSW) 2,082 4.4 -11.7°
Drops below altitude 10° 21:29:13 10° 194° (SSW) 3,146 4.8 -12.2°
Enters shadow 21:30:47 - 188° (S) 3,607 5.0 -12.4°
